Torna al catalogo

SL-8 R/B

AttivoLEO
NORAD 5555·ROCKET BODY·🇷🇺 Russia

Lanciato Oct 13, 1971 da Plesetsk Cosmodrome

Loading…

Prossimi Passaggi (prossime 24 ore)

TLE

AggiornatoSource: Space-Track

Epoca: Sep 14, 2026, 01:12 UTC

1 05555U 71086J   26257.05005221 -.00000098  00000-0 -72412-3 0  9997
2 05555  74.0150 263.9215 0075824 203.7056 185.4492 12.27030029459812

Traccia SL-8 R/B in tempo reale con AllMySat

Download on the App Store